This is the latest recevied weather packets stored in our database for station/object OK1JRA-6. If no packets are shown the sender has not sent any weather packets the latest 1 day(s).
| Time | Temp. | Humidity | Pressure | Rain* | Wind** | Luminosity | Snow |
|---|---|---|---|---|---|---|---|
| 1778025750 | 11.11° C | 79% | 1007.7 hPa | 0 mm | 0.45 m/s, 338° | - | - |
| 1778025443 | 11.11° C | 79% | 1007.7 hPa | 0 mm | 0.89 m/s, 340° | - | - |
| 1778025137 | 11.11° C | 78% | 1007.8 hPa | 0 mm | 0.45 m/s, 316° | - | - |
| 1778024525 | 11.11° C | 78% | 1007.8 hPa | 0 mm | 0.45 m/s, 315° | - | - |
| 1778024219 | 11.67° C | 77% | 1007.9 hPa | 0 mm | 0.45 m/s, 315° | - | - |
| 1778023913 | 11.67° C | 77% | 1007.9 hPa | 0 mm | 0.89 m/s, 288° | - | - |
| 1778023606 | 11.67° C | 77% | 1007.8 hPa | 0 mm | 0.89 m/s, 270° | - | - |
| 1778023300 | 11.67° C | 77% | 1007.8 hPa | 0 mm | 0.45 m/s, 270° | - | - |
| 1778022994 | 12.22° C | 77% | 1007.8 hPa | 0 mm | 0 m/s | - | - |
| 1778022688 | 12.22° C | 77% | 1007.8 hPa | 0 mm | 0 m/s | - | - |
| 1778021769 | 12.78° C | 78% | 1007.7 hPa | 0 mm | 0.89 m/s, 312° | - | - |
| 1778021463 | 12.78° C | 78% | 1007.7 hPa | 0 mm | 0.45 m/s, 277° | - | - |
| 1778021157 | 12.78° C | 78% | 1007.6 hPa | 0 mm | 0.45 m/s, 270° | - | - |
| 1778020851 | 12.78° C | 77% | 1007.5 hPa | 0 mm | 0 m/s | - | - |
| 1778020545 | 13.33° C | 77% | 1007.4 hPa | 0 mm | 0.45 m/s, 270° | - | - |
| 1778020238 | 13.33° C | 77% | 1007.4 hPa | 0.25 mm | 0 m/s | - | - |
| 1778019932 | 13.33° C | 77% | 1007.3 hPa | 0.25 mm | 0.45 m/s, 270° | - | - |
| 1778019626 | 13.33° C | 77% | 1007.4 hPa | 0.25 mm | 0.89 m/s, 297° | - | - |
| 1778019320 | 13.33° C | 77% | 1007.4 hPa | 0.25 mm | 0.89 m/s, 299° | - | - |
| 1778019014 | 13.89° C | 78% | 1007.4 hPa | 0.25 mm | 1.34 m/s, 301° | - | - |
| 1778018708 | 13.89° C | 78% | 1007.3 hPa | 0.25 mm | 1.79 m/s, 311° | - | - |
| 1778018402 | 13.89° C | 78% | 1007.2 hPa | 0.25 mm | 1.34 m/s, 309° | - | - |
| 1778018095 | 13.89° C | 78% | 1007.2 hPa | 0.25 mm | 1.34 m/s, 314° | - | - |
| 1778017789 | 13.89° C | 78% | 1007.3 hPa | 0.25 mm | 1.34 m/s, 307° | - | - |
| 1778017483 | 13.89° C | 77% | 1007.3 hPa | 0.25 mm | 0.89 m/s, 304° | - | - |
* Rain latest hour (hover to see other rain measurements)
** Current wind speed in m/s (hover to see current wind gust speed)